Location: *
(47.6569°N, 7.4256°E)
Time: 09:13:22
(UTC+00:00)

Okean 1 - Pass Details

Date: 14 December 2019
Orbit: 539 x 555 km, 82.5° (Epoch: 17 January)

Event Time Altitude Azimuth Distance (km) Brightness Sun altitude
Rises 16:48:08 0° 165° (SSE) 2,696 6.9 -11.1°
Reaches altitude 10° 16:50:25 10° 156° (SSE) 1,806 5.9 -11.5°
Maximum altitude 16:54:00 33° 92° (E) 921 4.0 -12.0°
Enters shadow 16:57:08 13° 30° (NNE) 1,644 5.3 -12.5°
